Change the Weather History Date:

Sunday, February 16, 2014

  Actual Average Record
Temperature  
Mean Temperature 5 °F -  
Max Temperature 17 °F 20 °F 49 °F (1981)
Min Temperature -7 °F 1 °F -28 °F (1967)
Degree Days  
Heating Degree Days 60    
Moisture  
Dew Point 3 °F    
Average Humidity 83    
Maximum Humidity 93    
Minimum Humidity 73    
Precipitation  
Precipitation 0.00 in - - ()
Sea Level Pressure  
Sea Level Pressure 30.00 in    
Wind  
Wind Speed 11 mph (SE)    
Max Wind Speed 24 mph    
Max Gust Speed 28 mph    
Visibility 9 miles    
Events Snow    
Averages and records for this station are not official NWS values.
T = Trace of Precipitation, MM = Missing Value Source: NWS Daily Summary

Daily Weather History Graph

Daily Weather History Graph

Search for Another Location

Airport or City:

Trip Planner

Search our weather history database for the weather conditions in past years. The results will help you decide how hot, cold, wet, or windy it might be!

Date:

Astronomy

Feb. 16, 2014 Rise Set
Actual Time 7:34 AM CST 5:52 PM CST
Civil Twilight 7:02 AM CST 6:25 PM CST
Nautical Twilight 6:26 AM CST 7:01 PM CST
Astronomical Twilight 5:50 AM CST 7:37 PM CST
Moon 8:04 PM CST (2/16) 7:54 AM CST (2/16)
Length of Visible Light 11h 22m
Length of Day
10h 18m
Full, 97% of the Moon is Illuminated
Feb 16
Full
Feb 22
Last Quarter
Mar 1
New
Mar 8
First Quarter
Mar 16
Full

Hourly Weather History & Observations

Time (CST) Temp. Windchill Dew Point Humidity Pressure Visibility Wind Dir Wind Speed Gust Speed Precip Events Conditions
12:15 AM 1.4 °F -14.5 °F -4.0 °F 78% 30.17 in 10.0 mi North 10.4 mph - N/A   Overcast
12:35 AM 1.4 °F -13.5 °F -4.0 °F 78% 30.17 in 10.0 mi North 9.2 mph - N/A   Overcast
12:55 AM 1.4 °F -9.9 °F -4.0 °F 78% 30.18 in 10.0 mi NNW 5.8 mph - N/A   Overcast
1:15 AM 1.4 °F -13.5 °F -4.0 °F 78% 30.19 in 10.0 mi NNW 9.2 mph - N/A   Overcast
1:35 AM 1.4 °F -13.5 °F -2.2 °F 85% 30.19 in 10.0 mi NNW 9.2 mph - N/A   Overcast
1:55 AM 1.4 °F -12.5 °F -2.2 °F 85% 30.19 in 10.0 mi NNW 8.1 mph - N/A Snow Light Snow
2:15 AM 1.4 °F -13.5 °F -2.2 °F 85% 30.20 in 10.0 mi NNW 9.2 mph - N/A   Overcast
2:35 AM 1.4 °F -11.3 °F -2.2 °F 85% 30.20 in 10.0 mi NNW 6.9 mph - N/A   Overcast
2:55 AM 1.4 °F -8.3 °F -2.2 °F 85% 30.19 in 10.0 mi North 4.6 mph - N/A   Overcast
3:15 AM 1.4 °F -9.9 °F -2.2 °F 85% 30.18 in 10.0 mi NNE 5.8 mph - N/A   Overcast
3:35 AM -0.4 °F -12.0 °F -4.0 °F 85% 30.17 in 10.0 mi NE 5.8 mph - N/A   Overcast
3:55 AM -0.4 °F -12.0 °F -4.0 °F 85% 30.16 in 10.0 mi NE 5.8 mph - N/A   Overcast
4:15 AM -0.4 °F -8.3 °F -4.0 °F 85% 30.16 in 10.0 mi NNE 3.5 mph - N/A   Overcast
4:35 AM -0.4 °F - -4.0 °F 85% 30.16 in 10.0 mi Calm Calm - N/A   Overcast
4:55 AM -0.4 °F - -4.0 °F 85% 30.15 in 10.0 mi Calm Calm - N/A   Overcast
5:15 AM -0.4 °F - -4.0 °F 85% 30.16 in 10.0 mi Calm Calm - N/A   Overcast
5:35 AM -0.4 °F -10.4 °F -4.0 °F 85% 30.15 in 10.0 mi East 4.6 mph - N/A   Overcast
5:55 AM -0.4 °F -8.3 °F -4.0 °F 85% 30.15 in 10.0 mi SE 3.5 mph - N/A   Overcast
6:15 AM -0.4 °F - -4.0 °F 85% 30.15 in 10.0 mi Calm Calm - N/A   Mostly Cloudy
6:35 AM -0.4 °F -10.4 °F -4.0 °F 85% 30.15 in 10.0 mi South 4.6 mph - N/A   Clear
6:55 AM -2.2 °F -12.5 °F -7.6 °F 78% 30.15 in 10.0 mi SSE 4.6 mph - N/A   Clear
7:15 AM -4.0 °F -17.8 °F -7.6 °F 85% 30.15 in 10.0 mi South 6.9 mph - N/A   Clear
7:35 AM -7.6 °F -22.1 °F -11.2 °F 84% 30.14 in 10.0 mi South 6.9 mph - N/A   Clear
7:55 AM -7.6 °F -20.6 °F -11.2 °F 84% 30.14 in 10.0 mi SSW 5.8 mph - N/A   Clear
8:15 AM -7.6 °F -20.6 °F -11.2 °F 84% 30.13 in 10.0 mi SSE 5.8 mph - N/A   Scattered Clouds
8:35 AM -7.6 °F -22.1 °F -11.2 °F 84% 30.13 in 10.0 mi SSE 6.9 mph - N/A   Scattered Clouds
8:55 AM -5.8 °F -19.9 °F -9.4 °F 84% 30.13 in 10.0 mi SSE 6.9 mph - N/A   Mostly Cloudy
9:15 AM -2.2 °F -16.8 °F -7.6 °F 78% 30.12 in 10.0 mi SSE 8.1 mph - N/A   Overcast
9:55 AM -0.4 °F -16.7 °F -4.0 °F 85% 30.10 in 10.0 mi SSE 10.4 mph - N/A   Mostly Cloudy
10:15 AM -0.4 °F -19.2 °F -2.2 °F 92% 30.09 in 10.0 mi SSE 13.8 mph - N/A   Clear
10:35 AM 1.4 °F -16.1 °F -2.2 °F 85% 30.08 in 10.0 mi SSE 12.7 mph - N/A   Clear
10:55 AM 1.4 °F -17.6 °F -0.4 °F 92% 30.07 in 10.0 mi SSE 15.0 mph - N/A   Clear
11:15 AM 5.0 °F -12.3 °F -0.4 °F 78% 30.05 in 10.0 mi SE 13.8 mph - N/A   Clear
11:35 AM 5.0 °F -13.0 °F -0.4 °F 78% 30.05 in 10.0 mi SSE 15.0 mph - N/A   Clear
11:55 AM 6.8 °F -10.7 °F 1.4 °F 79% 30.04 in 9.0 mi SSE 15.0 mph - N/A   Mostly Cloudy
12:15 PM 6.8 °F -11.3 °F 3.2 °F 85% 30.01 in 5.0 mi SSE 16.1 mph - N/A   Overcast
12:35 PM 8.6 °F -8.9 °F 5.0 °F 85% 29.99 in 4.0 mi SE 16.1 mph - N/A   Overcast
12:55 PM 8.6 °F -10.5 °F 5.0 °F 85% 29.97 in 7.0 mi SSE 19.6 mph 24.2 mph N/A   Overcast
1:15 PM 8.6 °F -10.0 °F 5.0 °F 85% 29.96 in 8.0 mi SE 18.4 mph - N/A   Overcast
1:35 PM 8.6 °F -8.9 °F 5.0 °F 85% 29.98 in 5.0 mi SSE 16.1 mph - N/A   Overcast
1:55 PM 8.6 °F -10.0 °F 5.0 °F 85% 29.96 in 5.0 mi SSE 18.4 mph 24.2 mph N/A   Overcast
2:15 PM 10.4 °F -8.2 °F 5.0 °F 79% 29.96 in 5.0 mi SSE 19.6 mph - N/A Snow Light Snow
2:35 PM 10.4 °F -8.2 °F 6.8 °F 85% 29.94 in 8.0 mi SSE 19.6 mph - N/A   Overcast
2:55 PM 10.4 °F -9.9 °F 6.8 °F 85% 29.93 in 4.0 mi SSE 24.2 mph - N/A   Overcast
3:15 PM 10.4 °F -9.9 °F 6.8 °F 85% 29.92 in 4.0 mi SSE 24.2 mph - N/A   Overcast
3:35 PM 10.4 °F -7.2 °F 6.8 °F 85% 29.92 in 8.0 mi SSE 17.3 mph - N/A   Mostly Cloudy
3:55 PM 12.2 °F -6.3 °F 6.8 °F 79% 29.90 in 7.0 mi SSE 20.7 mph - N/A   Mostly Cloudy
4:15 PM 14.0 °F -2.5 °F 8.6 °F 79% 29.90 in 9.0 mi SSE 17.3 mph 23.0 mph N/A   Mostly Cloudy
4:35 PM 14.0 °F -3.9 °F 8.6 °F 79% 29.88 in 9.0 mi SSE 20.7 mph 25.3 mph N/A   Partly Cloudy
4:55 PM 14.0 °F -4.3 °F 8.6 °F 79% 29.87 in 9.0 mi SSE 21.9 mph 27.6 mph N/A   Partly Cloudy
5:15 PM 14.0 °F -3.4 °F 8.6 °F 79% 29.87 in 10.0 mi SSE 19.6 mph 26.5 mph N/A   Clear
5:35 PM 14.0 °F -3.0 °F 8.6 °F 79% 29.86 in 10.0 mi SSE 18.4 mph - N/A   Clear
5:55 PM 15.8 °F -1.1 °F 10.4 °F 79% 29.85 in 10.0 mi SE 19.6 mph - N/A   Clear
6:15 PM 15.8 °F -1.1 °F 10.4 °F 79% 29.84 in 10.0 mi SE 19.6 mph - N/A   Clear
6:35 PM 15.8 °F -1.1 °F 10.4 °F 79% 29.85 in 10.0 mi SE 19.6 mph - N/A   Mostly Cloudy
6:55 PM 15.8 °F -1.1 °F 10.4 °F 79% 29.84 in 10.0 mi SE 19.6 mph - N/A   Mostly Cloudy
7:15 PM 17.6 °F 0.9 °F 10.4 °F 73% 29.85 in 10.0 mi SSE 20.7 mph - N/A   Mostly Cloudy
7:35 PM 17.6 °F 1.7 °F 10.4 °F 73% 29.85 in 10.0 mi SSE 18.4 mph - N/A   Partly Cloudy
7:55 PM 17.6 °F 0.9 °F 10.4 °F 73% 29.85 in 9.0 mi SSE 20.7 mph 24.2 mph N/A   Clear
8:15 PM 17.6 °F 0.9 °F 10.4 °F 73% 29.84 in 10.0 mi SSE 20.7 mph - N/A   Clear
8:35 PM 17.6 °F 0.9 °F 10.4 °F 73% 29.82 in 10.0 mi SSE 20.7 mph - N/A   Scattered Clouds
8:55 PM 17.6 °F 0.5 °F 10.4 °F 73% 29.81 in 10.0 mi SSE 21.9 mph 26.5 mph N/A   Overcast
9:15 PM 17.6 °F 0.1 °F 10.4 °F 73% 29.80 in 5.0 mi SSE 23.0 mph 27.6 mph N/A   Haze
9:35 PM 15.8 °F -1.9 °F 14.0 °F 93% 29.80 in 1.0 mi SSE 21.9 mph - N/A Snow Light Snow
9:55 PM 15.8 °F -1.5 °F 14.0 °F 93% 29.80 in 0.8 mi SSE 20.7 mph - N/A Snow Light Snow
10:15 PM 15.8 °F -0.6 °F 14.0 °F 93% 29.80 in 1.0 mi SSE 18.4 mph - N/A Snow Light Snow
10:35 PM 15.8 °F -0.2 °F 14.0 °F 93% 29.79 in 4.0 mi SSE 17.3 mph - N/A Snow Light Snow
10:55 PM 15.8 °F 0.3 °F 14.0 °F 93% 29.78 in 8.0 mi SSE 16.1 mph - N/A Snow Light Snow
11:15 PM 15.8 °F -0.6 °F 14.0 °F 93% 29.78 in 9.0 mi SSE 18.4 mph - N/A   Overcast
11:35 PM 15.8 °F -0.2 °F 14.0 °F 93% 29.77 in 5.0 mi SSE 17.3 mph - N/A   Overcast
11:55 PM 15.8 °F -0.2 °F 14.0 °F 93% 29.76 in 10.0 mi SSE 17.3 mph 21.9 mph N/A   Overcast